Change the Weather History Date:

Thursday, December 5, 2013

  Actual Average Record
Temperature  
Mean Temperature 43 °F -  
Max Temperature 59 °F 62 °F 79 °F (1987)
Min Temperature 27 °F 32 °F 18 °F (1990)
Degree Days  
Heating Degree Days 22    
Moisture  
Dew Point 24 °F    
Average Humidity 82    
Maximum Humidity 89    
Minimum Humidity 28    
Precipitation  
Precipitation 0.15 in - - ()
Sea Level Pressure  
Sea Level Pressure 30.04 in    
Wind  
Wind Speed 9 mph (North)    
Max Wind Speed 22 mph    
Max Gust Speed 33 mph    
Visibility 5 miles    
Events Rain , Snow    
Averages and records for this station are not official NWS values.
T = Trace of Precipitation, MM = Missing Value Source: NWS Daily Summary

Daily Weather History Graph

Daily Weather History Graph

Search for Another Location

Airport or City:

Trip Planner

Search our weather history database for the weather conditions in past years. The results will help you decide how hot, cold, wet, or windy it might be!

Date:

Astronomy

Dec. 05, 2013 Rise Set
Actual Time 6:43 AM MST 4:51 PM MST
Civil Twilight 6:17 AM MST 5:18 PM MST
Nautical Twilight 5:46 AM MST 5:48 PM MST
Astronomical Twilight 5:16 AM MST 6:18 PM MST
Moon 9:10 AM MST (12/5) 8:09 PM MST (12/5)
Length of Visible Light 11h 01m
Length of Day
10h 07m
Waxing Crescent, 11% of the Moon is Illuminated
Dec 5
Waxing Crescent
Dec 9
First Quarter
Dec 17
Full
Dec 25
Last Quarter
Jan 1
New

Hourly Weather History & Observations

Time (MST) Temp. Windchill Dew Point Humidity Pressure Visibility Wind Dir Wind Speed Gust Speed Precip Events Conditions
12:53 AM 59.0 °F - 26.1 °F 28% 29.70 in 10.0 mi West 8.1 mph - N/A   Clear
1:53 AM 55.9 °F - 30.9 °F 39% 29.71 in 10.0 mi WNW 8.1 mph - N/A   Clear
2:53 AM 37.9 °F 27.3 °F 21.9 °F 53% 29.84 in 10.0 mi NNW 21.9 mph 33.4 mph N/A   Mostly Cloudy
3:53 AM 36.0 °F 25.3 °F 23.0 °F 59% 29.87 in 8.0 mi NNW 19.6 mph - 0.00 in Rain Light Rain
4:53 AM 33.1 °F 23.4 °F 26.1 °F 75% 29.92 in 8.0 mi NNW 13.8 mph - 0.00 in Rain Light Rain
5:51 AM 30.2 °F 19.8 °F 24.8 °F 80% 30.06 in 7.0 mi NW 13.8 mph - 0.02 in   Overcast
5:53 AM 30.9 °F 20.7 °F 24.1 °F 76% 29.99 in 7.0 mi NNW 13.8 mph - 0.02 in   Overcast
6:13 AM 30.9 °F 21.7 °F 25.0 °F 79% 30.06 in 6.0 mi North 11.5 mph - 0.01 in   Overcast
6:21 AM 30.9 °F 20.7 °F 25.0 °F 79% 30.06 in 7.0 mi NNW 13.8 mph - 0.01 in   Overcast
6:53 AM 30.0 °F 21.7 °F 23.0 °F 75% 30.03 in 7.0 mi North 9.2 mph - 0.02 in   Overcast
7:41 AM 28.9 °F 21.1 °F 24.1 °F 82% 30.10 in 4.0 mi NNW 8.1 mph - 0.02 in Rain Light Freezing Rain
7:53 AM 28.9 °F 19.8 °F 25.0 °F 85% 30.06 in 6.0 mi NW 10.4 mph - 0.03 in Rain Light Freezing Rain
8:03 AM 28.9 °F 22.8 °F 25.0 °F 85% 30.12 in 3.0 mi Variable 5.8 mph - 0.00 in   Overcast
8:13 AM 28.0 °F 20.0 °F 23.0 °F 81% 30.12 in 2.0 mi NE 8.1 mph - 0.01 in   Overcast
8:31 AM 28.0 °F 20.8 °F 23.0 °F 81% 30.11 in 1.8 mi NE 6.9 mph - 0.03 in Snow Light Snow
8:44 AM 28.0 °F 20.8 °F 23.0 °F 81% 30.11 in 3.0 mi NE 6.9 mph - 0.04 in Snow Light Snow
8:53 AM 28.0 °F 20.0 °F 23.0 °F 81% 30.06 in 6.0 mi NE 8.1 mph - 0.04 in   Overcast
9:53 AM 28.0 °F 21.7 °F 23.0 °F 81% 30.07 in 4.0 mi East 5.8 mph - 0.00 in   Overcast
10:01 AM 28.0 °F 24.2 °F 23.0 °F 81% 30.12 in 5.0 mi East 3.5 mph - 0.00 in   Overcast
10:25 AM 28.0 °F 22.8 °F 24.1 °F 85% 30.12 in 3.0 mi East 4.6 mph - 0.00 in   Overcast
10:46 AM 28.9 °F 23.9 °F 24.1 °F 82% 30.11 in 2.5 mi East 4.6 mph - 0.00 in Rain Light Freezing Rain
10:53 AM 28.0 °F 20.8 °F 24.1 °F 85% 30.07 in 2.0 mi ENE 6.9 mph - 0.00 in Rain Light Freezing Rain
11:10 AM 28.0 °F 21.7 °F 24.1 °F 85% 30.11 in 3.0 mi ENE 5.8 mph - 0.01 in   Overcast
11:50 AM 28.4 °F 21.2 °F 24.8 °F 86% 30.09 in 3.0 mi East 6.9 mph - 0.01 in   Overcast
11:53 AM 28.0 °F 20.8 °F 25.0 °F 88% 30.05 in 3.0 mi East 6.9 mph - 0.01 in   Overcast
12:27 PM 28.0 °F 21.7 °F 24.1 °F 85% 30.06 in 4.0 mi East 5.8 mph - 0.00 in   Overcast
12:47 PM 28.4 °F 23.3 °F 24.8 °F 86% 30.05 in 3.0 mi East 4.6 mph - 0.00 in Rain Light Freezing Rain
12:53 PM 28.0 °F 20.8 °F 25.0 °F 88% 30.01 in 3.0 mi East 6.9 mph - 0.00 in Rain Light Freezing Rain
1:07 PM 28.9 °F 22.8 °F 25.0 °F 85% 30.04 in 4.0 mi ENE 5.8 mph - 0.01 in Rain Light Freezing Rain
1:10 PM 28.9 °F 23.9 °F 25.0 °F 85% 30.04 in 3.0 mi East 4.6 mph - 0.01 in   Overcast
1:17 PM 28.9 °F 22.8 °F 25.0 °F 85% 30.04 in 3.0 mi ESE 5.8 mph - 0.01 in   Overcast
1:33 PM 28.9 °F 23.9 °F 25.0 °F 85% 30.03 in 2.0 mi ENE 4.6 mph - 0.01 in   Overcast
1:48 PM 28.4 °F 24.6 °F 24.8 °F 86% 30.03 in 4.0 mi East 3.5 mph - 0.01 in   Overcast
1:53 PM 28.9 °F 25.2 °F 25.0 °F 85% 29.99 in 2.5 mi East 3.5 mph - 0.01 in   Overcast
1:59 PM 28.9 °F 25.2 °F 24.1 °F 82% 30.02 in 1.8 mi ENE 3.5 mph - 0.00 in   Overcast
2:06 PM 28.9 °F 25.2 °F 25.0 °F 85% 30.02 in 2.5 mi ENE 3.5 mph - 0.00 in   Overcast
2:13 PM 28.9 °F 25.2 °F 26.1 °F 89% 30.02 in 2.5 mi ENE 3.5 mph - 0.00 in Snow Light Snow
2:24 PM 28.9 °F 25.2 °F 26.1 °F 89% 30.02 in 1.2 mi East 3.5 mph - 0.01 in Snow Light Snow
2:53 PM 28.0 °F 20.0 °F 25.0 °F 88% 30.02 in 1.2 mi NNW 8.1 mph - 0.01 in Snow Light Snow
3:07 PM 28.0 °F 20.0 °F 25.0 °F 88% 30.01 in 3.0 mi NNW 8.1 mph - 0.00 in Snow Light Snow
3:13 PM 28.0 °F 20.0 °F 25.0 °F 88% 30.01 in 6.0 mi NNW 8.1 mph - 0.00 in   Overcast
3:20 PM 28.0 °F 20.8 °F 24.1 °F 85% 30.01 in 9.0 mi NNW 6.9 mph - 0.00 in   Overcast
3:30 PM 28.0 °F 20.8 °F 25.0 °F 88% 30.01 in 10.0 mi NNW 6.9 mph - 0.00 in   Overcast
3:50 PM 28.4 °F 22.2 °F 24.8 °F 86% 30.02 in 9.0 mi NNW 5.8 mph - 0.00 in   Overcast
3:53 PM 28.0 °F 22.8 °F 25.0 °F 88% 30.03 in 9.0 mi NNW 4.6 mph - 0.00 in   Overcast
4:26 PM 28.0 °F 20.8 °F 25.0 °F 88% 30.02 in 3.0 mi North 6.9 mph - 0.00 in Rain Light Freezing Rain
4:37 PM 28.0 °F 20.8 °F 25.0 °F 88% 30.03 in 2.5 mi North 6.9 mph - 0.00 in   Overcast
4:53 PM 28.9 °F 21.1 °F 25.0 °F 85% 30.04 in 2.5 mi North 8.1 mph - 0.01 in   Overcast
5:00 PM 28.0 °F 20.0 °F 25.0 °F 88% 30.03 in 4.0 mi NNW 8.1 mph - 0.00 in   Overcast
5:51 PM 28.4 °F 19.7 °F 24.8 °F 86% 30.04 in 5.0 mi NNW 9.2 mph - 0.00 in Rain Light Freezing Rain
5:53 PM 28.0 °F 18.6 °F 25.0 °F 88% 30.06 in 5.0 mi North 10.4 mph - 0.00 in Rain Light Freezing Rain
6:07 PM 28.0 °F 18.1 °F 24.1 °F 85% 30.04 in 6.0 mi NNW 11.5 mph - 0.00 in   Overcast
6:53 PM 28.0 °F 18.6 °F 24.1 °F 85% 30.08 in 7.0 mi North 10.4 mph - 0.00 in   Overcast
7:53 PM 27.0 °F 16.7 °F 23.0 °F 85% 30.10 in 10.0 mi NNW 11.5 mph - N/A   Overcast
8:07 PM 27.0 °F 16.1 °F 23.0 °F 85% 30.07 in 10.0 mi NNW 12.7 mph - N/A   Overcast
8:53 PM 27.0 °F 16.7 °F 23.0 °F 85% 30.12 in 7.0 mi NW 11.5 mph - 0.00 in   Overcast
9:53 PM 27.0 °F 18.0 °F 23.0 °F 85% 30.12 in 6.0 mi NW 9.2 mph - 0.00 in   Overcast
10:07 PM 27.0 °F 19.5 °F 23.0 °F 85% 30.10 in 7.0 mi NW 6.9 mph - 0.00 in   Overcast
10:30 PM 28.0 °F 20.0 °F 24.1 °F 85% 30.10 in 5.0 mi NNW 8.1 mph - 0.00 in   Overcast
10:40 PM 27.0 °F 19.5 °F 24.1 °F 89% 30.10 in 4.0 mi NW 6.9 mph - 0.00 in Rain Light Freezing Rain
10:53 PM 27.0 °F 20.5 °F 24.1 °F 89% 30.12 in 5.0 mi North 5.8 mph - 0.00 in   Overcast
11:53 PM 27.0 °F 20.5 °F 24.1 °F 89% 30.12 in 6.0 mi NNW 5.8 mph - 0.00 in   Overcast